Location: Maccacari
(45.1333°N, 11.1333°E)
Time: 14:53:13
(UTC+00:00)

Courier 1B - All Passes

Search period start: 25 January 2021 00:00
Search period end: 04 February 2021 00:00
Orbit: 962 x 1209 km, 28.3° (Epoch: 24 January)

Date Brightness Start Highest point End Pass type
(mag) Time Alt. Az. Time Alt. Az. Time Alt. Az.
25 Jan - 01:53:19 10° SW 01:56:29 14° SSW 01:59:42 10° SSE night (unlit)
25 Jan - 21:16:28 10° S 21:17:27 10° SSE 21:18:26 10° SSE night (unlit)
25 Jan - 23:06:12 10° SSW 23:10:14 17° S 23:14:12 10° SE night (unlit)
26 Jan - 00:59:23 10° SW 01:03:04 16° S 01:06:44 10° SSE night (unlit)
26 Jan - 22:12:55 10° SSW 22:16:47 16° S 22:20:34 10° SE night (unlit)
27 Jan - 00:05:36 10° SW 00:09:37 17° S 00:13:36 10° SSE night (unlit)
27 Jan - 02:01:35 10° SSW 02:02:21 10° SSW 02:03:07 10° SSW night (unlit)
27 Jan - 21:19:46 10° SSW 21:23:18 15° SSE 21:26:46 10° SE night (unlit)
27 Jan - 23:11:55 10° SW 23:16:10 18° S 23:20:19 10° SE night (unlit)
28 Jan - 01:06:19 10° SW 01:08:56 13° SSW 01:11:32 10° S night (unlit)
28 Jan - 20:26:52 10° S 20:29:49 13° SSE 20:32:43 10° SE visible
28 Jan - 22:18:18 10° SW 22:22:41 18° S 22:26:57 10° SE night (unlit)
29 Jan - 00:12:03 10° SW 00:15:31 15° SSW 00:18:56 10° SSE night (unlit)
29 Jan - 19:34:34 10° S 19:36:20 11° SSE 19:38:04 10° SE visible
29 Jan - 21:24:48 10° SW 21:29:12 18° S 21:33:28 10° SE night (unlit)
29 Jan - 23:18:03 10° SW 23:22:04 17° S 23:26:00 10° SSE night (unlit)
30 Jan - 20:31:24 10° SSW 20:35:41 17° S 20:39:50 10° SE visible
30 Jan - 22:24:10 10° SW 22:28:36 18° S 22:32:54 10° SE night (unlit)
31 Jan - 00:19:35 10° SW 00:21:21 11° SSW 00:23:07 10° S night (unlit)
31 Jan - 19:38:10 10° SSW 19:42:10 16° SSE 19:46:03 10° SE visible
31 Jan - 21:30:24 10° SW 21:35:06 19° S 21:39:38 10° SE night (unlit)
31 Jan - 23:24:45 10° SW 23:27:56 14° SSW 23:31:03 10° SSE night (unlit)
01 Feb - 18:45:11 10° SSW 18:48:38 14° SSE 18:51:59 10° SE visible
01 Feb - 20:36:44 10° SW 20:41:34 19° S 20:46:15 10° SE visible
01 Feb - 22:30:28 10° SW 22:34:29 16° SSW 22:38:22 10° SSE night (unlit)
02 Feb - 17:52:44 10° S 17:55:05 12° SSE 17:57:25 10° SE visible
02 Feb - 19:43:09 10° SW 19:48:01 19° S 19:52:43 10° SE visible
02 Feb - 21:36:26 10° SW 21:40:59 18° S 21:45:23 10° SSE night (unlit)
03 Feb - 18:49:44 10° SSW 18:54:27 18° S 18:59:02 10° SE visible
03 Feb - 20:42:30 10° SW 20:47:27 20° S 20:52:13 10° SE visible
03 Feb - 22:37:30 10° SW 22:40:17 13° SSW 22:43:01 10° S night (unlit)
